sat.trackr.live / text

‹ back to catalog

STARLINK-6260

NORAD 56416 · 2023-061AU

PAYLOAD ACTIVE UNKNOWN

§ Identity

Operator
Country
US
Launch date
2023-05-04
Launch site
AFETR
Launch vehicle
Mass (kg)
RCS (m²)

Purposes: comms

External: N2YO · Heavens-Above · Gunter

§ Orbital elements

Epoch: 2026-05-25T04:08:31.301664Z

Period
94.29 min
Inclination
43.0047°
Eccentricity
0.0002125
Mean motion
15.27282123 rev/d
Perigee alt
482.5 km
Apogee alt
485.4 km
Semi-major
6,862.1 km
B*
1.9639e-3
RAAN
107.8864°
Arg perigee
264.4406°
Mean anomaly
95.6203°
Rev number
16,865

§ Raw data

STARLINK-62601 56416U 23061AU  26145.17258451  .00053685  00000+0  19639-2 0  99912 56416  43.0047 107.8864 0002125 264.4406  95.6203 15.27282123168656

JSON: /api/v1/satellites/56416 · /tle

For live sub-satellite position, see the globe view (requires WebGL).

§ Visibility from observer

Set your observer location to see the next 7 days of passes ≥ 10°. The values pass through the URL so the page stays shareable.

No JS? Fill the form by hand. The geolocation button needs JavaScript.